Regional Weather Roundup
Issued by NWS New Orleans/Baton Rouge, LA

Home | Current Version | Previous Version | Graphics & Text | Print | Product List | Glossary On
Versions: 1 2 3 4 5 6 7 8 9 10 11 12 13 14 15 16 17 18 19 20 21 22 23 24 25 26 27 28 29 30 31 32 33 34 35 36 37 38 39 40 41 42 43 44 45 46 47 48 49 50
913
ASUS44 KLIX 232105
RWRLIX
NEW ORLEANS REGIONAL WEATHER ROUNDUP
NATIONAL WEATHER SERVICE NEW ORLEANS LA
400 PM CDT TUE SEP 23 2014

NOTE: "FAIR" INDICATES FEW OR NO CLOUDS BELOW 12,000 FEET WITH NO
      SIGNIFICANT WEATHER AND/OR OBSTRUCTIONS TO VISIBILITY.
      SKY/WX - SKY CONDITION AND SIGNIFICANT WEATHER.
      TMP - AIR TEMPERATURE.     DP    - DEWPOINT TEMPERATURE.
      RH  - RELATIVE HUMIDITY.   PRES  - PRESSURE.
      HI  - HEAT INDEX.          WCI   - WIND CHILL INDEX.

*  THESE STATIONS ARE NOT NWS OR FAA STATIONS AND ARE NOT UNDER
   NWS QUALITY CONTROL.

LAZ038-040-048-061>063-065>067-069-232200-
SOUTHEAST LOUISIANA

CITY           SKY/WX    TMP DP  RH WIND       PRES   REMARKS
N.O. AUDUBON   NOT AVBL
N.O. INTL ARPT MOSUNNY   84  54  35 N12       30.04F
N.O. LAKEFRONT SUNNY     84  52  33 N7        30.04F
N.O. DOWNTOWN*   N/A     84  50  30 N9        30.04F
SLIDELL        SUNNY     85  52  32 N10       30.04F
BATON ROUGE    SUNNY     84  56  38 N6        30.06F
BOOTHVILLE     SUNNY     81  61  50 NE13G20   30.03F
BELLE CHASSE   MOSUNNY   84  53  34 NE10      30.03F
BOGALUSA*        N/A     85  48  27 NE13      30.07F
GALLIANO*      NOT AVBL
NEW ROADS*       N/A     83  53  35 N3        30.06F
GONZALES*        N/A     84  55  37 NE6       30.04F
HAMMOND*       SUNNY     86  46  25 NE3       30.07F
HOUMA*         SUNNY     84  54  34 N9        30.03F
PORT FOURCHON* CLEAR    N/A N/A N/A NE15      30.05F

$$

MSZ070-080>082-232200-
SOUTHERN MISSISSIPPI

CITY           SKY/WX    TMP DP  RH WIND       PRES   REMARKS
MCCOMB         SUNNY     83  49  30 VRB7      30.07F
GULFPORT       SUNNY     86  55  34 NE8       30.03F
BILOXI         SUNNY     86  55  35 NE8       30.03F
PASCAGOULA     SUNNY     85  59  41 NE10      30.03F
STENNIS ARPT*  SUNNY     84  43  23 NE8G14    30.04F

$$

COASTAL OBSERVATIONS
LAKE AND NEARSHORE STATIONS

STATION/POSITION TIME  TEMP    WIND        PRES    WAVE
                       AIR SEA DIR/SP/G            HT/PER
                 (UTC) (F)     (DEG/KT/KT) (MB)    (FT/S)
PASCAGOULA       2100   85      70/ 10/ 15 1016.4
WAVELAND YACHT   2100   81      40/  7/ 10 1016.5
GRAND ISLE       2100   80 81   70/ 12/ 16 1017.4
SOUTHWEST PASS   2100   88 89   60/ 15/ 18 1016.8
NEW CANAL        2100   80 80   10/  7/  9 1017.7
SHELL BEACH      2100   79 77   60/ 12/ 14 1016.9

OFFSHORE STATIONS

STATION/POSITION TIME  TEMP    WIND        PRES    WAVE
                       AIR SEA DIR/SP/G            HT/PER
                 (UTC) (F)     (DEG/KT/KT) (MB)    (FT/S)
64 S DAUPHIN ISL 2027   78 84   60/ 16/ 19 1016.7    4/ 6

$$




USA.gov is the U.S. government's official web portal to all federal, state and local government web resources and services.